Everett, WA

10:19 AM PDT on June 25, 2017 (GMT -0700)
Snohomish County

Weather History for KPAE - October, 2012

Change the Weather History Date:

Thursday, October 4, 2012

  Actual Average Record
Temperature  
Mean Temperature 53 °F -  
Max Temperature 62 °F 63 °F 77 °F (1970)
Min Temperature 45 °F 44 °F 33 °F (1957)
Degree Days  
Heating Degree Days 12    
Growing Degree Days 3 (Base 50)    
Moisture  
Dew Point 39 °F    
Average Humidity 62    
Maximum Humidity 82    
Minimum Humidity 40    
Precipitation  
Precipitation 0.00 in - - ()
Sea Level Pressure  
Sea Level Pressure 30.29 in    
Wind  
Wind Speed 3 mph (North)    
Max Wind Speed 10 mph    
Max Gust Speed -    
Visibility 10 miles    
Events      
Averages and records for this station are not official NWS values.
T = Trace of Precipitation, MM = Missing Value Source: NWS Daily Summary

Daily Weather History Graph

Daily Weather History Graph

Search for Another Location

Airport or City:

Trip Planner

Search our weather history database for the weather conditions in past years. The results will help you decide how hot, cold, wet, or windy it might be!

Date:

Astronomy

Oct. 04, 2012 Rise Set
Actual Time 7:13 AM PDT 6:41 PM PDT
Civil Twilight 6:42 AM PDT 7:11 PM PDT
Nautical Twilight 6:06 AM PDT 7:47 PM PDT
Astronomical Twilight 5:30 AM PDT 8:24 PM PDT
Moon 9:00 PM PDT (10/4) 11:55 AM PDT (10/4)
Length of Visible Light 12h 29m
Length of Day
11h 27m
Waning Gibbous, 81% of the Moon is Illuminated
Oct 4
Waning Gibbous
Oct 8
Last Quarter
Oct 15
New
Oct 21
First Quarter
Oct 29
Full

Hourly Weather History & Observations

Time (PDT) Temp. Windchill Dew Point Humidity Pressure Visibility Wind Dir Wind Speed Gust Speed Precip Events Conditions
12:53 AM 48.9 °F - 37.0 °F 64% 30.30 in 10.0 mi Calm Calm - N/A   Clear
1:53 AM 48.0 °F - 37.0 °F 66% 30.30 in 10.0 mi Calm Calm - N/A   Clear
2:53 AM 46.0 °F - 39.0 °F 76% 30.29 in 10.0 mi Calm Calm - N/A   Clear
3:53 AM 46.0 °F - 37.9 °F 73% 30.28 in 10.0 mi Calm Calm - N/A   Clear
4:53 AM 45.0 °F 43.5 °F 39.0 °F 80% 30.29 in 10.0 mi North 3.5 mph - N/A   Clear
5:53 AM 46.0 °F 43.1 °F 39.0 °F 76% 30.29 in 10.0 mi North 5.8 mph - N/A   Clear
6:53 AM 45.0 °F 43.5 °F 39.9 °F 82% 30.30 in 10.0 mi NNE 3.5 mph - N/A   Clear
7:53 AM 46.0 °F 43.9 °F 39.0 °F 76% 30.30 in 10.0 mi North 4.6 mph - N/A   Clear
8:53 AM 48.9 °F - 39.0 °F 69% 30.31 in 10.0 mi North 5.8 mph - N/A   Clear
9:53 AM 52.0 °F - 39.0 °F 61% 30.31 in 10.0 mi North 5.8 mph - N/A   Clear
10:53 AM 54.0 °F - 42.1 °F 64% 30.32 in 10.0 mi North 8.1 mph - N/A   Clear
11:53 AM 55.9 °F - 39.0 °F 53% 30.31 in 10.0 mi Variable 6.9 mph - N/A   Clear
12:53 PM 57.0 °F - 33.1 °F 40% 30.31 in 10.0 mi NNW 10.4 mph - N/A   Clear
1:53 PM 59.0 °F - 35.1 °F 41% 30.30 in 10.0 mi NNW 6.9 mph - N/A   Clear
2:53 PM 61.0 °F - 37.9 °F 42% 30.28 in 10.0 mi North 6.9 mph - N/A   Clear
3:53 PM 61.0 °F - 39.0 °F 44% 30.28 in 10.0 mi Variable 6.9 mph - N/A   Clear
4:53 PM 59.0 °F - 39.9 °F 49% 30.27 in 10.0 mi Variable 6.9 mph - N/A   Clear
5:53 PM 57.0 °F - 37.9 °F 49% 30.27 in 10.0 mi North 6.9 mph - N/A   Clear
6:53 PM 54.0 °F - 39.0 °F 57% 30.27 in 10.0 mi NNW 4.6 mph - N/A   Clear
7:53 PM 53.1 °F - 37.9 °F 57% 30.27 in 10.0 mi North 5.8 mph - N/A   Clear
8:53 PM 51.1 °F - 41.0 °F 68% 30.27 in 10.0 mi Calm Calm - N/A   Clear
9:53 PM 48.9 °F - 41.0 °F 74% 30.27 in 10.0 mi Calm Calm - N/A   Clear
10:53 PM 50.0 °F - 39.0 °F 66% 30.28 in 10.0 mi Calm Calm - N/A   Clear
11:53 PM 50.0 °F - 41.0 °F 71% 30.29 in 10.0 mi North 3.5 mph - N/A   Clear